Bowman Field
KLOU : now visible

Airfield :











YOU CAN JOIN US ON...

 
LOGIN :

Register | Disclaimer

   EN    FR    IT 

 









Legend :    VFR   Marginal VFR   IFR   Intensive IFR   Very Intensive IFR
Visi :
Ceiling :
>= 8 km
>= 3000ft
5 to 8 km
1000 to 3000 ft
1500m to 5 km
500 to 1000 ft
800 to 1500m
200 to 500 ft
< 800m
< 200 ft
Symbols :   Thunderstorms  Fog  Heavy snow  Heavy precipitations  Wind > 20 kt






- Airport Elevation : 546 ft


KLOU - Bowman Field

CURRENT METAR :
  • 192113Z 17006KT 10SM FEW014 BKN021 18/16 A3007 RMK AO2 T01780161

EXPIRED METARs :
  • 192053Z 16006KT 10SM SCT013 BKN017 BKN034 18/16 A3007 RMK AO2 SLP182 T01780156 56016
  • 192046Z 17005KT 10SM SCT011 BKN017 OVC034 18/16 A3007 RMK AO2 T01780156
  • 191953Z 18005KT 9SM BKN012 OVC024 17/15 A3009 RMK AO2 SLP187 T01720150
  • 191853Z 16006KT 10SM OVC011 17/14 A3010 RMK AO2 SLP192 T01670144

TAF N/A
KZID FIR / North America



MET'MAP, your aeronautical weather chart ! - Copyright ORBIFLY December 2007 - Disclaimer

ORBIFLY MET'MAP TEAM :

Programming & Development : Alexandra Zaïnal
Concept & original design : Baudouin d'Aumeries
Assistance for programming : Marc-Olivier Méhu
Technical & hardware support : Manuel Goepfert

Contact : metmap@orbifly.com




SOURCES & CREDITS :

   NOAA       Earth
Advisory